Tracking 30922 objects as of 2-Jul-2025
HD Live streaming from Space Station
objects crossing your sky now

STARLINK-30993

Track STARLINK-30993 now!
10-day predictions
STARLINK-30993 is classified as:


NORAD ID: 58489
Int'l Code: 2023-186S
Perigee: 565.3 km
Apogee: 567.1 km
Inclination: 43.0 °
Period: 95.8 minutes
Semi major axis: 6937 km
RCS: Unknown
Launch date: December 3, 2023
Source: United States (US)
Launch site: AIR FORCE EASTERN TEST RANGE (AFETR)
Your satellite tracking list
Your tracking list is empty




NASA's NSSDC Master Catalog

Two Line Element Set (TLE):
1 58489U 23186S   25182.74117465  .00000230  00000-0  32084-4 0  9993
2 58489  43.0049 350.9219 0001269 265.2860  94.7837 15.02535481 88099
Source of the keplerian elements: AFSPC